Regional Weather Roundup
Issued by NWS Charleston, SC

Home | Current Version | Previous Version | Text Only | Print | Product List | Glossary On
Versions: 1 2 3 4 5 6 7 8 9 10 11 12 13 14 15 16 17 18 19 20 21 22 23 24 25 26 27 28 29 30 31 32 33 34 35 36 37 38 39 40 41 42 43 44 45 46 47 48 49 50
000
ASUS42 KCHS 260927
RWRCHS

REGIONAL WEATHER ROUNDUP
NATIONAL WEATHER SERVICE CHARLESTON SC
500 AM EDT TUE SEP 26 2017

NOTE: "FAIR" INDICATES FEW OR NO CLOUDS BELOW 12,000 FEET WITH NO
SIGNIFICANT WEATHER AND/OR OBSTRUCTIONS TO VISIBILITY.

NOT ALL STATIONS ARE QUALITY CONTROLLED. USE DATA WITH CAUTION...
ESPECIALLY DEWPOINT OBSERVATIONS.

SCZ027-030-031-034>040-042>050-261000-
...SOUTHEAST SOUTH CAROLINA...

CITY           SKY/WX    TMP DP  RH WIND       PRES   REMARKS
N CHARLESTON   PTCLDY    70  69  97 N7        29.84F
WATERFRONT PRK   N/A     75  70  84 N6        29.68S
JOHNS ISLAND   FAIR      72  70  94 NW5       29.85R
PINOPOLIS        N/A     75  72  88 N12       29.78F
MONCKS CORNER  FAIR      72  68  88 N8        29.86R
SUMMERVILLE    FAIR      68  68 100 N3        29.87S
BEAUFORT MCAS  CLEAR     72  70  93 NW6       29.87S
BEAUFORT ARPT  FAIR      72  68  88 NW8       29.86S
HILTON HEAD IS CLEAR     73  72  94 W5        29.87S
WALTERBORO     SUNNY     66  64  94 CALM      29.88S
ALLENDALE      NOT AVBL

...SOUTHERN MIDLANDS AND PEE DEE...

CITY           SKY/WX    TMP DP  RH WIND       PRES   REMARKS
GEORGETOWN     FAIR      70  68  94 N7        29.85R
KINGSTREE      FAIR      68  66  94 NW5       29.86S
ORANGEBURG     CLEAR     70  66  87 N5        29.89S
BARNWELL       FAIR      68  68 100 CALM      29.91S
AIKEN          FAIR      68  63  83 NW5       29.95F
MANNING        FAIR      70  64  83 MISG      29.88R
COLUMBIA       PTCLDY    73  64  73 NW6       29.91R
SUMTER         PTCLDY    70  65  83 NW9       29.87S
FLORENCE       PTCLDY    70  67  90 NW7       29.88R
MYRTLE BEACH   CLOUDY    72  69  90 NW10      29.85R
N MYRTLE BEACH CLOUDY    73  69  87 N10       29.82R

$$

GAZ063-065-086>088-099>101-113>116-118-119-134>141-150-261000-
...SOUTHEAST GEORGIA...

CITY           SKY/WX    TMP DP  RH WIND       PRES   REMARKS
SAVANNAH ARPT  CLEAR     68  67  96 W5        29.89R
HUNTER AAF     CLEAR     68  66  93 W6        29.86S
FORT STEWART   CLEAR     68  65  91 NW3       29.87S
STATESBORO     CLEAR     67  67 100 CALM      29.90S
SYLVANIA       MOSUNNY   67  67 100 CALM      29.91S
CLAXTON        FAIR      66  65  99 CALM      29.90S

...CSRA...CENTRAL AND FAR SOUTHEAST GEORGIA...

CITY           SKY/WX    TMP DP  RH WIND       PRES   REMARKS
THOMSON        CLEAR     62  61  96 CALM      29.98S
AUGUSTA-BUSH     N/A    N/A N/A N/A MISG        N/A
AUGUSTA-DANIEL CLEAR     71  66  84 N9        29.93S
SWAINSBORO     FAIR      64  64 100 CALM      29.93S
VIDALIA        CLEAR     68  64  88 CALM      29.91S
EASTMAN        FAIR      64  64  99 CALM      29.94S FOG
HAZLEHURST     FAIR      67  65  93 CALM      29.90S
ALMA           CLEAR     66  64  93 CALM      29.90S
WAYCROSS       CLEAR     67  64  90 CALM      29.90S
JESUP          NOT AVBL
BAXLEY         FAIR      63  63 100 CALM      29.90S
BRUNSWICK      CLEAR     70  66  88 CALM      29.90R
SAINT SIMONS   CLEAR     74  72  93 CALM      29.88R

$$

SCZ027-028-034-036>038-045-046-048>050-GAZ119-141-261000-
...LAKE AND SUPPLEMENTAL COASTAL OBSERVATIONS...

STATION/POSITION TIME  TEMP    WIND        PRES    WAVE   SWELL
                       AIR SEA DIR/SP/G            HT/PER HT/PER/DIR
                 (UTC) (F)     (DEG/KT/KT) (MB)    (FT/S) (FT/S/D)
WINYAH BAY       0830   71     350/  5     1010.0S
LAKE MURRAY      0850   70     320/  2/  5 1012.2S
ACE BASIN NERRS  0845   70     300/  1     1011.0S
FORT PULASKI     0900   72 80  340/  6/  7 1011.9
SAPELO ISLAND    0900   73        CALM     1012.0

$$

ANZ835-935-AMZ111-154-330-350-352-354-370-450-454-472-261000-
...C-MAN AND BUOY OBSERVATIONS...

STATION/POSITION TIME  TEMP    WIND        PRES    WAVE   SWELL
                       AIR SEA DIR/SP/G            HT/PER HT/PER/DIR
                 (UTC) (F)     (DEG/KT/KT) (MB)    (FT/S) (FT/S/D)
BUOY 41004       0910   77 81  340/ 16/ 19 1009.1
BUOY 41008       0850   78 80  310/ 12/ 14 1010.9F   4/13   3/ 50/13
FOLLY BEACH CMAN 0900   74     340/  7/  9 1011.0S
CAPERS NEARSHORE 0908   72 80  340/ 16/ 21 1009.9R
FRIPP NEARSHORE  0908   75     320/ 10/ 14 1016.3R


STATION/POSITION TIME  TEMP    WIND        PRES    WAVE   SWELL
                       AIR SEA DIR/SP/G            HT/PER HT/PER/DIR
                 (UTC) (F)     (DEG/KT/KT) (MB)    (FT/S) (FT/S/D)
5E ST. MARYS GA  0900      81                N/A     4/13   2/ 90/13
FRYING PAN BUOY  0910   77 81  340/ 21/ 29 1007.4
BUOY 41025       0850   77 78   20/ 29/ 35 1002.9F  19/14  16/140/14
CAPE LOOKOUT NC  0900   76     360/ 25/ 32 1006.2R
BUOY 41002       0850   80 81  300/ 31/ 39  995.5R  16/10
BUOY 41010       0910          320/ 10/ 14 1010.1
ST AUGUSTINE FL  0900   74 82  310/  4/  5 1011.8F


$$



USA.gov is the U.S. government's official web portal to all federal, state and local government web resources and services.